This demonstration page uses our WeatherBlox Daily Observations layout. Learn more.

40.92945, -100.16068

Hourly Observations for March 12, 2015

Temp ( °F °C ) Dew Point ( °F °C ) Humidity (%) Winds ( mph kmh ) Pressure ( in mb ) Visibility ( mi km ) Precip ( " mm )
12:15 am 00:15 Clear 50 9.9 26 -3.1 40 40 SSE 10 17 30.21 1023 10 16.0934 N/A
12:35 am 00:35 Clear 50 10 27 -2.9 41 41 SSE 13 20 30.21 1023 10 16.0934 N/A
12:55 am 00:55 Clear 50 10.1 27 -2.7 41 41 SSE 13 20 30.21 1023 10 16.0934 N/A
1:15 am 01:15 Clear 49 9.7 28 -2.5 43 43 SSE 12 19 30.21 1023 10 16.0934 N/A
1:35 am 01:35 Clear 49 9.5 28 -2.2 44 44 SSE 10 17 30.18 1022 10 16.0934 N/A
1:55 am 01:55 Clear 47 8.2 28 -2.1 49 49 SSE 8 13 30.21 1023 10 16.0934 N/A
2:15 am 02:15 Clear 46 7.6 28 -2 51 51 SSE 9 15 30.21 1023 10 16.0934 N/A
2:35 am 02:35 Clear 46 7.9 28 -2 50 50 SSE 10 17 30.21 1023 10 16.0934 N/A
2:55 am 02:55 Clear 47 8.2 29 -1.5 51 51 SSE 12 19 30.21 1023 10 16.0934 N/A
3:15 am 03:15 Clear 46 7.8 29 -1.5 52 52 SSE 12 19 30.21 1023 10 16.0934 N/A
3:35 am 03:35 Clear 47 8.1 30 -1.2 52 52 SSE 13 20 30.15 1021 10 16.0934 N/A
3:55 am 03:55 Clear 46 8 30 -1.2 53 53 SSE 12 19 30.15 1021 10 16.0934 N/A
4:15 am 04:15 Clear 46 7.7 30 -1.3 53 53 SSE 12 19 30.15 1021 10 16.0934 N/A
4:35 am 04:35 Clear 46 7.6 29 -1.4 53 53 SSE 10 17 30.12 1020 10 16.0934 N/A
4:55 am 04:55 Clear 46 7.6 29 -1.5 53 53 SSE 10 17 30.12 1020 10 16.0934 N/A
5:15 am 05:15 Clear 46 7.6 29 -1.5 53 53 SE 8 13 30.12 1020 10 16.0934 N/A
5:35 am 05:35 Clear 45 7 29 -1.6 55 55 SE 7 11 30.15 1021 10 16.0934 N/A
5:55 am 05:55 Clear 44 6.6 29 -1.5 57 57 ESE 5 7 30.15 1021 10 16.0934 N/A
6:15 am 06:15 Clear 39 3.9 28 -2.2 65 65 E 8 13 30.18 1022 10 16.0934 N/A
6:35 am 06:35 Clear 42 5.5 29 -1.4 61 61 SE 8 13 30.15 1021 10 16.0934 N/A
6:55 am 06:55 Clear 46 7.6 30 -1 55 55 SSE 8 13 30.12 1020 10 16.0934 N/A
7:15 am 07:15 Clear 35 1.7 27 -2.8 72 72 ESE 5 7 30.18 1022 10 16.0934 N/A
7:35 am 07:35 Clear 38 3.1 29 -1.9 70 70 ESE 6 9 30.18 1022 10 16.0934 N/A
7:55 am 07:55 Clear 39 4.1 29 -1.6 67 67 ESE 5 7 30.18 1022 10 16.0934 N/A
8:15 am 08:15 Sunny 38 3.4 28 -2 68 68 ESE 6 9 30.18 1022 10 16.0934 N/A
8:35 am 08:35 Sunny 36 2.2 28 -2 74 74 E 5 7 30.18 1022 7 11.26538 N/A
8:55 am 08:55 Sunny 42 5.4 32 -0.2 68 68 ESE 5 7 30.15 1021 10 16.0934 N/A
9:15 am 09:15 Sunny 46 7.7 32 -0.1 58 58 Calm 30.12 1020 10 16.0934 N/A
9:35 am 09:35 Sunny 49 9.5 32 0 52 52 S 5 7 30.12 1020 10 16.0934 N/A
9:55 am 09:55 Sunny 51 10.6 32 0 48 48 S 8 13 30.09 1019 10 16.0934 N/A
10:15 am 10:15 Sunny 52 11.3 32 0 46 46 SSE 7 11 30.09 1019 10 16.0934 N/A
10:35 am 10:35 Sunny 57 13.8 32 0 39 39 S 7 11 30.09 1019 10 16.0934 N/A
10:55 am 10:55 Sunny 59 15 32 -0.1 36 36 S 13 20 30.06 1018 10 16.0934 N/A
11:15 am 11:15 Sunny 62 16.6 32 0 33 33 S 12 19 30.06 1018 10 16.0934 N/A
11:35 am 11:35 Sunny 64 17.8 31 -0.3 30 30 SSW 14 22 30.03 1017 10 16.0934 N/A
11:55 am 11:55 Sunny 66 18.9 32 0 28 28 S 14 22 30.03 1017 10 16.0934 N/A
12:15 pm 12:15 Sunny 68 20 32 -0.2 26 26 SSW 14 22 30.03 1017 10 16.0934 N/A
12:35 pm 12:35 Sunny 69 20.7 32 -0.1 25 25 S 15 24 30 1016 10 16.0934 N/A
12:55 pm 12:55 Sunny 71 21.9 31 -0.3 23 23 S 16 26 29.97 1015 10 16.0934 N/A
1:15 pm 13:15 Sunny 72 22.4 32 -0.2 22 22 SSW 21 33 29.97 1015 10 16.0934 N/A
1:35 pm 13:35 Sunny 73 22.7 32 -0.1 22 22 SSW 15 24 29.97 1015 10 16.0934 N/A
1:55 pm 13:55 Sunny 75 23.7 31 -0.5 20 20 SSW 17 28 29.94 1014 10 16.0934 N/A
2:15 pm 14:15 Sunny 75 24 29 -1.5 18 18 SSW 20 31 29.94 1014 10 16.0934 N/A
2:35 pm 14:35 Sunny 76 24.2 29 -1.5 18 18 SSW 22 35 29.91 1013 10 16.0934 N/A
2:55 pm 14:55 Sunny 76 24.4 27 -3 16 16 S 18 30 29.91 1013 10 16.0934 N/A
3:15 pm 15:15 Sunny 77 24.8 27 -2.8 16 16 S 21 33 29.91 1013 10 16.0934 N/A
3:35 pm 15:35 Sunny 77 24.9 29 -1.7 17 17 S 22 35 29.91 1013 10 16.0934 N/A
3:55 pm 15:55 Sunny 76 24.6 29 -1.9 17 17 S 22 35 29.91 1013 10 16.0934 N/A
4:15 pm 16:15 Sunny 76 24.4 28 -2.4 17 17 S 17 28 29.91 1013 10 16.0934 N/A
4:35 pm 16:35 Sunny 76 24.4 29 -1.9 17 17 S 16 26 29.91 1013 10 16.0934 N/A
4:55 pm 16:55 Sunny 75 24 28 -2.2 17 17 S 20 31 29.91 1013 10 16.0934 N/A
5:15 pm 17:15 Sunny 77 24.8 27 -2.8 16 16 S 16 26 29.91 1013 10 16.0934 N/A
5:35 pm 17:35 Sunny 76 24.6 27 -3 16 16 S 20 31 29.91 1013 10 16.0934 N/A
5:55 pm 17:55 Sunny 74 23.1 26 -3.1 17 17 S 13 20 29.94 1014 10 16.0934 N/A
6:15 pm 18:15 Sunny 73 22.7 27 -2.7 18 18 S 13 20 29.94 1014 10 16.0934 N/A
6:35 pm 18:35 Sunny 73 22.9 27 -3 18 18 S 12 19 29.94 1014 10 16.0934 N/A
6:55 pm 18:55 Sunny 71 21.8 27 -3 19 19 S 12 19 29.94 1014 10 16.0934 N/A
7:15 pm 19:15 Sunny 69 20.3 27 -3 21 21 S 10 17 29.97 1015 10 16.0934 N/A
7:35 pm 19:35 Sunny 65 18.5 27 -2.8 24 24 SSE 8 13 29.97 1015 10 16.0934 N/A
7:55 pm 19:55 Clear 62 16.5 27 -3 26 26 SSE 9 15 29.97 1015 10 16.0934 N/A
8:15 pm 20:15 Clear 60 15.5 27 -3 28 28 SSE 9 15 30 1016 10 16.0934 N/A
8:35 pm 20:35 Clear 58 14.6 27 -3 30 30 SSE 9 15 30 1016 10 16.0934 N/A
8:55 pm 20:55 Clear 56 13.4 27 -2.6 33 33 S 6 9 30.03 1017 10 16.0934 N/A
9:15 pm 21:15 Clear 56 13.3 27 -3 32 32 SSE 7 11 30.06 1018 10 16.0934 N/A
9:35 pm 21:35 Clear 55 12.9 27 -2.6 34 34 SSE 6 9 30.06 1018 10 16.0934 N/A
9:55 pm 21:55 Clear 56 13.3 27 -2.6 33 33 SE 5 7 30.06 1018 10 16.0934 N/A
10:15 pm 22:15 Clear 56 13.5 28 -2.5 33 33 SSE 6 9 30.03 1017 10 16.0934 N/A
10:35 pm 22:35 Clear 55 12.9 28 -2.3 35 35 SSE 8 13 30.09 1019 10 16.0934 N/A
10:55 pm 22:55 Clear 56 13.2 28 -2.2 35 35 S 8 13 30.09 1019 10 16.0934 N/A
11:15 pm 23:15 Clear 56 13.4 29 -1.7 35 35 SSE 9 15 30.09 1019 10 16.0934 N/A
11:35 pm 23:35 Clear 57 13.8 29 -1.5 35 35 S 10 17 30.09 1019 10 16.0934 N/A
11:55 pm 23:55 Clear 57 14.1 30 -1.2 35 35 SSW 12 19 30.09 1019 10 16.0934 N/A

Powered by AerisWeather